Weather Roundup
Issued by NWS Springfield, MO

Home | Current Version | Previous Version | Text Only | Print | Product List | Glossary On
Versions: 1 2 3 4 5 6 7 8 9 10 11 12 13 14 15 16 17 18 19 20 21 22 23 24 25 26 27 28 29 30 31 32 33 34 35 36 37 38 39 40 41 42 43 44 45 46 47 48 49 50
575
NZUS99 KSGF 301707
HRRSGF

HOURLY WEATHER
NATIONAL WEATHER SERVICE SPRINGFIELD MO
1200 PM CDT SUN APR 30 2017

......SGF CWA......

CITY           SKY/WX    TMP DP  RH WIND       PRES   REMARKS
SPRINGFIELD    CLOUDY    64  58  80 SW22      29.54R
JOPLIN         CLOUDY    58  51  78 S17G23    29.55F
ROLLA          CLOUDY    64  32  30 SE20G28   29.57F
OSAGE BEACH    CLOUDY    66  64  93 SE10G17   29.52F
BRANSON        CLOUDY    64  55  72 S12G18    29.59R

......SURROUNDING SGF CWA......

CITY           SKY/WX    TMP DP  RH WIND       PRES   REMARKS
CHANUTE        CLOUDY    54  46  74 S18G29    29.50F
PARSONS        CLOUDY    52  44  74 S12G23    29.53F
COFFEYVILLE    CLOUDY    54  44  69 S18G30    29.53F
EMPORIA        CLOUDY    50  48  93 S12       29.47F
GROVE OK       CLOUDY    57  48  72 S17G23    29.58S
ROGERS AR      LGT RAIN  56  49  77 S20G32    29.61S
SILOAM SPRINGS CLOUDY    55  45  67 S22G30    29.60F
HARRISON AR    PTSUNNY   64  54  69 S13G24    29.59R
NEAR YELLVILLE PTSUNNY  N/A N/A N/A S8        29.57R

......KANSAS AND MISSOURI......

CITY           SKY/WX    TMP DP  RH WIND       PRES   REMARKS
KANSAS CTY INT LGT RAIN  51  50  96 SE10      29.51F VSB 1
DOWNTOWN KC    LGT RAIN N/A N/A N/A E5        29.51F
COLUMBIA       LGT RAIN  65  63  93 SE16G29   29.55F
SEDALIA        CLOUDY    66  64  93 SE16G29   29.50F
ST JOSEPH      LGT RAIN  48  48 100 S7        29.52R FOG
ST LOUIS       RAIN      64  61  90 E15       29.71F
SPIRIT OF STL  LGT RAIN  64  63  96 E10       29.67F
KIRKSVILLE     TSTM      46  31  55 NE15G22   29.66F
WICHITA        CLOUDY    47  41  80 S15       29.44S
TOPEKA         CLOUDY    51  51 100 S12       29.49S
OLATHE         CLOUDY    52  52 100 SW12G22   29.50F FOG

......TENNESSEE......

CITY           SKY/WX    TMP DP  RH WIND       PRES   REMARKS
MEMPHIS        TSTM      72  68  87 SE20G32   29.66F FOG
NASHVILLE      CLOUDY    81  65  58 S25G33    29.94S

......ARKANSAS.......

CITY           SKY/WX    TMP DP  RH WIND       PRES   REMARKS
FAYETTEVILLE   CLOUDY    56  51  84 SW16G28   29.62S
FT SMITH       CLOUDY    60  46  59 SW22G29   29.64F
LITTLE ROCK    CLOUDY    64  59  83 SW12      29.69F

......OKLAHOMA.......

CITY           SKY/WX    TMP DP  RH WIND       PRES   REMARKS
TULSA          PTSUNNY   53  39  59 S24G35    29.57S
PONCA CITY     CLOUDY    48  38  68 S16G23    29.49F
MCALESTER      CLOUDY    52  39  61 SW20G28   29.69F
OKLAHOMA CITY  LGT RAIN  48  38  68 SW26G38   29.57F

......IOWA............

CITY           SKY/WX    TMP DP  RH WIND       PRES   REMARKS
DES MOINES     DRIZZLE   43  40  89 E23G29    29.68F
QUAD CITIES    CLOUDY    46  43  89 NE17      29.78F FOG

......ILLINOIS........

CITY           SKY/WX    TMP DP  RH WIND       PRES   REMARKS
QUINCY         LGT RAIN  51  51 100 E10       29.66F
CHICAGO        RAIN      45  43  93 N13       29.84R FOG




USA.gov is the U.S. government's official web portal to all federal, state and local government web resources and services.